Weather History for Milwaukee, WI

Change the Weather History Date:

Thursday, March 7, 2013

  Actual Average Record
Temperature  
Mean Temperature 30 °F 32 °F  
Max Temperature 35 °F 39 °F 77 °F (2000)
Min Temperature 24 °F 25 °F -2 °F (1932)
Degree Days  
Heating Degree Days 35 33  
Month to date heating degree days 272 238  
Since 1 July heating degree days 4997 5218  
Cooling Degree Days 0 0  
Month to date cooling degree days 0 0  
Year to date cooling degree days 0 0  
Moisture  
Dew Point 21 °F    
Average Humidity 70    
Maximum Humidity 78    
Minimum Humidity 61    
Precipitation  
Precipitation 0.00 in 0.07 in 1.23 in (1931)
Month to date precipitation 0.40 0.45  
Year to date precipitation 6.60 3.86  
Snow  
Snow 0.00 in 0.30 in 7.90 in (1931)
Month to date snowfall 4.3 2.2  
Since 1 July snowfall 41.5 40.0  
Snow Depth 8.00 in    
Sea Level Pressure  
Sea Level Pressure 30.41 in    
Wind  
Wind Speed 6 mph (NNE)    
Max Wind Speed 10 mph    
Max Gust Speed 13 mph    
Visibility 10 miles    
Events      
T = Trace of Precipitation, MM = Missing Value Source: NWS Daily Summary

Daily Weather History Graph

Daily Weather History Graph

Search for Another Location

Airport:

Trip Planner

Search our weather history database for the weather conditions in past years. The results will help you decide how hot, cold, wet, or windy it might be!

Date:

Astronomy

Mar. 07, 2013 Rise Set
Actual Time 6:17 AM CST 5:48 PM CST
Civil Twilight 5:48 AM CST 6:17 PM CST
Nautical Twilight 5:16 AM CST 6:49 PM CST
Astronomical Twilight 4:42 AM CST 7:22 PM CST
Moon 3:22 AM CST (3/7) 1:31 PM CST (3/7)
Length of Visible Light 12h 28m
Length of Day
11h 31m
Waning Crescent, 20% of the Moon is Illuminated
Mar 7
Waning Crescent
Mar 11
New
Mar 19
First Quarter
Mar 27
Full
Apr 2
Last Quarter

Hourly Weather History & Observations

Time (CST) Temp. Windchill Dew Point Humidity Pressure Visibility Wind Dir Wind Speed Gust Speed Precip Events Conditions
12:52 AM 30.9 °F 24.3 °F 23.0 °F 72% 30.32 in 10.0 mi NW 6.9 mph - N/A   Overcast
1:52 AM 30.0 °F 22.4 °F 21.9 °F 72% 30.33 in 10.0 mi NW 8.1 mph - N/A   Overcast
2:52 AM 30.0 °F 22.4 °F 21.0 °F 69% 30.35 in 10.0 mi NW 8.1 mph - N/A   Overcast
3:52 AM 28.9 °F 21.9 °F 19.9 °F 69% 30.35 in 10.0 mi WNW 6.9 mph - N/A   Mostly Cloudy
4:52 AM 28.0 °F 20.8 °F 19.0 °F 69% 30.35 in 10.0 mi NW 6.9 mph - N/A   Mostly Cloudy
5:52 AM 26.1 °F 19.4 °F 18.0 °F 71% 30.38 in 10.0 mi WNW 5.8 mph - N/A   Mostly Cloudy
6:52 AM 25.0 °F 18.1 °F 17.1 °F 72% 30.39 in 10.0 mi NW 5.8 mph - N/A   Scattered Clouds
7:52 AM 26.1 °F 19.4 °F 18.0 °F 71% 30.41 in 10.0 mi WNW 5.8 mph - N/A   Partly Cloudy
8:52 AM 30.0 °F 25.2 °F 19.9 °F 66% 30.42 in 10.0 mi NNW 4.6 mph - N/A   Partly Cloudy
9:52 AM 32.0 °F 28.7 °F 21.0 °F 64% 30.43 in 10.0 mi Variable 3.5 mph - N/A   Scattered Clouds
10:52 AM 34.0 °F - 21.0 °F 59% 30.41 in 10.0 mi Calm Calm - N/A   Scattered Clouds
11:52 AM 32.0 °F 25.6 °F 24.1 °F 73% 30.42 in 10.0 mi NE 6.9 mph - N/A   Mostly Cloudy
12:52 PM 32.0 °F 24.8 °F 25.0 °F 75% 30.41 in 10.0 mi ENE 8.1 mph - N/A   Mostly Cloudy
1:52 PM 32.0 °F 24.8 °F 24.1 °F 73% 30.40 in 10.0 mi East 8.1 mph - N/A   Mostly Cloudy
2:52 PM 32.0 °F 25.6 °F 24.1 °F 73% 30.41 in 10.0 mi ENE 6.9 mph - N/A   Mostly Cloudy
3:52 PM 32.0 °F 25.6 °F 24.1 °F 73% 30.42 in 10.0 mi ENE 6.9 mph - N/A   Mostly Cloudy
4:52 PM 30.0 °F 22.4 °F 24.1 °F 79% 30.43 in 10.0 mi NE 8.1 mph - N/A   Mostly Cloudy
5:52 PM 28.9 °F 22.8 °F 23.0 °F 78% 30.43 in 10.0 mi NE 5.8 mph - N/A   Mostly Cloudy
6:52 PM 28.0 °F 24.2 °F 21.9 °F 78% 30.44 in 10.0 mi ENE 3.5 mph - N/A   Scattered Clouds
7:52 PM 28.0 °F 21.7 °F 21.9 °F 78% 30.44 in 10.0 mi ENE 5.8 mph - N/A   Scattered Clouds
8:52 PM 28.0 °F 22.8 °F 21.0 °F 75% 30.45 in 10.0 mi ENE 4.6 mph - N/A   Scattered Clouds
9:42 PM 28.4 °F 22.2 °F 21.2 °F 74% 30.42 in 10.0 mi ENE 5.8 mph - N/A   Mostly Cloudy
9:52 PM 28.0 °F 21.7 °F 21.0 °F 75% 30.45 in 10.0 mi ENE 5.8 mph - N/A   Mostly Cloudy
10:13 PM 26.6 °F 20.0 °F 19.4 °F 74% 30.42 in 10.0 mi ENE 5.8 mph - N/A   Partly Cloudy
10:52 PM 27.0 °F 23.0 °F 19.9 °F 75% 30.46 in 10.0 mi NE 3.5 mph - N/A   Mostly Cloudy
11:52 PM 27.0 °F 23.0 °F 19.9 °F 75% 30.46 in 10.0 mi ENE 3.5 mph - N/A   Mostly Cloudy